EHI
0 0 0 0 0 0 0 0 0 0 0 0 0 0 0 1 3 6 15 24 26 25 29 34 31 25 26 31 36 36 31 25 22 21 21 17 10 6 4 3 2 2 3 4
0 0 0 0 0 0 0 0 0 0 0 0 0 0 0 1 3 6 11 15 17 21 32 42 42 38 37 41 42 40 34 29 24 22 21 16 9 5 3 3 3 4 6 7
0 0 0 0 0 0 0 0 0 0 0 0 0 0 0 1 3 5 7 8 9 17 33 50 56 53 51 51 48 44 41 37 30 26 23 19 11 5 2 2 5 7 9 10
0 0 0 0 0 0 0 0 0 0 0 0 0 0 0 1 3 5 8 8 9 15 29 46 57 59 57 54 48 45 45 44 39 33 29 26 19 10 4 3 5 7 8 8
0 0 0 0 0 0 0 0 0 0 0 0 0 0 0 1 1 3 9 12 12 16 23 34 46 52 54 51 46 44 47 50 47 40 36 35 28 17 10 6 6 7 7 6
0 0 0 0 0 0 0 0 0 0 0 0 0 0 0 0 1 3 8 15 18 19 22 28 38 45 47 48 46 46 51 55 52 47 44 42 37 27 19 14 12 11 9 7
0 0 0 0 0 0 0 0 0 0 0 0 0 0 0 1 2 4 9 17 23 24 24 29 38 44 46 49 51 53 57 59 57 54 51 47 41 33 25 20 16 13 10 8
0 0 0 0 0 0 0 0 0 0 0 0 0 0 0 1 2 3 7 14 23 27 27 29 36 41 46 51 55 58 61 60 57 53 50 46 41 34 27 21 15 11 8 7
0 0 0 0 0 0 0 0 0 0 0 0 0 0 0 1 1 1 4 11 20 26 27 26 29 35 40 46 51 55 59 59 53 46 43 41 39 35 29 23 16 10 8 6
0 0 0 0 0 0 0 0 0 0 0 0 0 0 0 2 2 2 4 10 18 24 25 24 27 33 36 40 46 49 54 56 51 44 39 36 36 35 31 26 20 14 10 8
0 0 0 0 0 0 0 0 0 0 0 0 0 0 1 3 5 5 6 12 17 22 24 24 30 36 38 40 44 48 49 50 49 45 40 36 35 34 30 27 24 20 15 12
0 0 0 0 0 0 0 0 0 0 0 0 0 0 1 4 7 8 10 14 20 22 23 27 34 38 38 40 43 46 46 46 45 44 41 38 37 37 31 26 24 22 20 17
0 0 0 0 0 0 0 0 0 0 0 0 0 0 1 3 6 10 13 19 25 27 28 32 37 38 38 39 40 42 44 44 42 41 39 36 34 34 29 23 21 21 20 19
0 0 0 0 0 0 0 0 0 0 0 0 0 0 1 3 7 12 17 22 27 32 36 38 40 41 40 40 40 41 42 41 40 39 36 30 26 26 25 20 18 19 19 18
0 0 0 0 0 0 0 0 0 0 0 0 0 1 3 7 10 15 20 23 26 33 40 42 44 45 43 41 41 41 40 38 38 37 33 26 22 21 22 18 16 18 18 16
0 0 0 0 0 0 0 0 0 0 0 0 0 2 6 8 11 17 22 24 27 34 41 44 47 46 42 40 40 39 37 36 37 36 32 26 22 21 18 14 13 16 17 15
0 0 0 0 0 0 0 0 0 0 0 0 0 3 6 7 10 16 21 24 29 35 40 43 46 44 41 39 38 35 34 35 36 34 29 24 22 19 15 11 11 13 14 14
0 0 0 0 0 0 0 0 0 0 0 0 2 5 7 9 13 17 21 23 28 35 41 43 44 41 38 36 33 30 30 32 31 27 23 21 18 17 14 12 11 11 11 12
1 1 1 0 0 0 0 0 0 0 0 1 4 7 8 11 16 21 24 25 29 37 44 45 42 38 33 30 28 26 24 24 23 21 20 19 17 17 16 14 12 10 11 11
1 1 1 0 0 0 0 0 0 0 1 4 7 9 9 10 16 26 33 37 40 44 48 46 40 34 30 27 27 26 22 19 17 18 18 18 18 17 17 14 12 11 11 10
0 0 0 0 0 0 0 0 1 3 6 9 11 11 12 14 23 34 43 49 50 49 49 47 40 34 29 27 26 24 19 16 15 15 16 17 17 16 15 13 11 10 9 8
0 1 1 0 0 1 3 4 6 9 14 16 16 16 18 24 34 42 47 49 49 46 44 42 38 32 28 23 20 17 14 13 13 13 14 15 16 15 13 11 10 8 6 4
1 2 2 1 1 3 5 8 10 13 18 21 21 21 24 29 36 41 41 41 39 36 34 32 28 25 21 16 12 11 10 11 12 12 12 12 13 13 11 9 7 4 2 1
3 3 3 2 3 5 6 7 8 12 17 21 21 23 26 29 31 34 34 31 28 27 26 23 19 15 11 7 7 7 7 9 10 10 10 10 10 9 7 5 2 1 1 0
4 5 6 6 6 6 6 5 6 10 15 17 18 21 25 27 27 29 29 25 22 21 20 17 13 8 5 4 4 4 5 7 8 9 9 8 7 6 4 2 0 0 1 1
4 7 8 8 9 9 8 6 6 9 14 15 16 21 24 25 26 27 27 24 21 19 17 13 9 6 4 3 3 4 4 5 7 8 8 7 7 5 3 1 0 0 1 0
Wind_Speed
11 12 14 14 14 8 7 10 10 6 4 7 9 8 6 7 9 11 12 13 15 15 15 15 15 14 14 13 13 13 12 12 10 8 8 7 7 7 6 6 7 7 7 7
11 15 13 8 9 9 10 11 9 6 4 7 8 9 7 7 10 10 11 13 14 14 15 15 15 15 15 14 14 14 13 12 12 9 7 6 5 6 6 6 7 8 8 7
16 7 10 11 12 13 12 12 9 6 5 7 7 11 10 8 8 9 10 11 12 14 16 16 17 16 16 16 16 13 14 14 13 11 8 6 5 5 6 7 7 8 9 9
14 7 12 15 15 14 12 8 7 8 8 8 8 9 10 9 9 10 10 11 12 13 15 16 16 17 17 16 15 14 14 13 13 12 10 11 9 8 8 7 6 7 9 9
12 12 15 16 15 14 7 7 8 8 9 9 9 11 8 8 10 11 11 11 11 12 14 15 16 16 15 15 14 13 13 13 13 12 12 11 10 9 7 7 7 7 8 9
8 10 13 12 11 12 8 8 7 8 9 13 12 11 9 8 9 8 9 10 10 11 12 13 14 14 13 14 13 13 14 14 14 14 13 13 12 10 9 9 7 7 6 7
11 12 11 10 14 14 14 12 9 11 11 10 8 10 7 3 4 6 5 6 8 10 11 13 14 14 13 14 14 13 14 14 14 14 13 13 12 11 11 9 8 7 7 7
15 15 15 14 14 13 17 17 10 9 10 8 8 10 5 3 3 4 4 5 6 8 10 12 13 14 14 14 14 13 13 13 13 13 12 11 11 9 8 9 8 8 7 7
13 11 14 14 13 13 16 17 13 9 6 7 9 6 6 6 5 5 5 6 7 7 9 11 12 12 12 13 13 13 13 11 11 11 11 10 11 10 9 8 8 7 7 6
7 10 13 13 11 12 12 13 9 10 9 11 9 9 7 8 7 5 4 5 6 7 7 8 9 10 11 11 12 12 12 11 11 11 10 9 10 10 9 8 8 8 7 7
9 9 12 14 15 17 13 15 12 11 10 9 8 6 3 4 3 4 4 4 5 6 7 8 8 9 10 10 10 11 11 10 10 9 9 8 9 9 8 8 8 7 7 7
11 9 11 14 9 9 15 15 15 11 9 9 8 3 6 2 2 3 3 4 4 5 6 7 8 8 9 9 9 9 9 9 9 8 8 8 7 7 7 7 6 6 6 6
11 8 11 12 11 11 14 14 15 13 9 10 11 4 7 4 3 3 4 5 5 5 6 6 7 7 8 8 8 8 8 8 8 7 7 6 6 6 6 5 5 5 4 4
9 9 11 11 9 15 16 15 15 15 11 11 12 6 5 5 4 4 4 5 6 6 6 6 6 6 6 7 7 7 7 6 6 6 6 5 5 4 5 5 4 4 4 4
9 11 11 8 4 10 14 16 16 17 15 12 10 9 5 4 3 4 5 6 7 7 7 7 7 6 6 7 6 6 6 6 6 6 5 5 4 4 4 3 4 4 4 4
8 9 10 10 9 9 11 14 16 16 15 13 10 7 3 2 3 5 6 7 8 8 8 8 7 7 7 7 7 7 7 6 6 6 6 5 5 4 4 3 3 4 4 3
10 9 11 11 11 11 14 14 15 14 13 12 11 7 5 5 5 5 6 7 7 8 8 8 8 8 7 7 7 7 7 6 6 6 6 5 4 4 4 4 4 4 4 4
9 10 8 9 11 15 7 6 10 11 11 9 7 6 5 4 3 4 5 7 7 8 9 9 9 9 8 8 8 8 8 7 7 7 6 6 5 5 5 5 5 5 4 4
9 10 8 9 12 10 6 7 9 11 9 8 7 5 5 6 6 5 5 6 7 8 9 9 9 10 9 9 9 9 8 8 7 7 6 6 5 6 6 6 5 5 5 5
9 9 10 9 11 10 6 6 5 8 9 5 6 6 7 9 7 5 7 7 8 9 9 9 9 10 10 9 9 9 9 8 7 7 6 6 6 6 6 6 6 5 5 6
12 11 13 11 10 5 4 5 7 10 4 4 4 6 7 5 1 7 9 9 10 10 10 10 10 9 9 9 9 9 9 8 7 7 7 7 7 7 6 6 6 7 7 8
10 10 11 10 11 6 4 5 5 2 4 2 3 4 4 5 7 10 10 11 11 11 11 11 10 9 8 8 9 10 9 8 7 8 8 8 7 7 7 7 7 7 8 8
5 3 3 4 1 4 2 1 3 2 1 2 2 3 6 7 9 10 11 11 11 11 10 10 10 10 8 8 8 10 8 7 8 9 8 8 8 8 7 7 7 6 5 5
3 2 3 2 2 2 1 1 1 1 1 1 2 4 6 8 10 10 10 10 10 11 10 10 10 9 8 8 8 9 8 8 9 9 8 8 8 8 8 6 5 5 5 5
2 4 4 3 3 2 2 2 3 4 3 3 4 5 6 9 10 10 10 10 9 10 9 9 9 9 9 8 8 8 8 8 9 9 8 8 8 9 9 9 9 7 8 6
3 3 4 3 3 1 3 3 3 3 4 4 5 5 6 8 10 11 10 9 9 9 9 9 10 10 9 8 8 7 7 7 8 8 7 6 7 7 8 9 10 17 14 15
Wind_Direction
187 207 207 205 216 242 223 217 212 196 175 228 230 234 211 194 205 204 196 193 195 199 192 188 189 189 187 187 187 190 195 191 192 192 195 195 198 202 204 208 206 209 213 209
188 218 215 207 206 220 216 217 208 182 184 236 233 237 223 209 213 213 204 201 200 194 189 187 190 190 190 189 190 190 194 194 198 197 200 201 206 210 209 211 204 214 215 218
206 200 190 194 197 207 213 218 207 197 194 219 239 227 215 207 216 214 212 208 205 198 192 189 190 192 193 193 194 194 195 195 201 198 197 195 201 217 209 211 209 212 215 218
218 178 187 197 201 206 208 209 213 207 218 208 224 235 204 204 207 208 210 207 205 200 196 191 191 193 196 196 195 198 195 198 198 198 203 202 209 216 218 216 212 211 216 220
202 189 193 203 201 207 205 179 205 216 230 239 215 248 213 187 218 213 209 210 209 200 196 194 194 194 195 194 194 194 194 197 198 203 207 210 218 223 222 220 217 219 217 222
193 189 203 207 196 200 170 170 188 219 230 232 222 238 233 203 221 220 208 207 207 200 196 194 192 188 190 191 192 192 193 197 199 204 209 213 219 223 225 222 222 217 218 221
189 191 196 197 184 186 193 190 194 203 213 226 197 232 242 202 220 239 226 211 203 195 192 190 187 185 186 189 191 193 193 197 199 204 208 211 217 220 224 225 224 223 226 221
190 191 190 194 197 186 202 210 222 220 215 197 182 230 223 176 218 241 233 217 199 189 186 187 188 186 187 187 188 192 193 196 199 204 207 210 213 217 222 221 230 224 227 228
197 189 178 193 203 201 198 217 235 253 245 230 197 209 217 197 211 211 208 194 186 182 182 184 187 186 187 186 188 191 190 194 198 202 205 209 212 218 223 218 223 230 229 226
202 183 174 181 194 213 220 207 210 230 223 226 212 214 214 187 198 189 186 182 174 172 171 174 178 181 182 182 183 188 189 192 196 198 204 206 212 214 215 218 221 227 230 231
208 192 168 180 198 190 198 204 213 220 238 238 218 204 173 181 188 192 171 167 164 164 165 167 168 171 175 177 179 184 186 188 191 196 202 210 211 209 210 214 218 218 224 226
207 212 184 189 189 213 205 206 207 213 214 242 257 165 111 161 181 176 147 142 142 153 156 157 159 163 168 172 174 176 180 184 187 191 195 203 210 207 207 209 213 216 218 221
187 210 189 184 188 202 212 212 214 225 223 226 237 188 124 153 171 162 148 142 140 150 148 146 150 158 163 168 172 171 176 179 180 181 186 192 199 198 200 203 202 204 208 212
203 212 222 208 191 185 199 204 210 217 223 223 234 228 173 190 188 166 155 152 150 151 147 144 145 149 151 160 164 164 166 163 164 165 170 175 183 181 184 188 191 192 187 184
213 211 222 237 192 195 201 202 206 217 228 236 229 235 213 206 199 172 164 159 154 153 149 145 143 138 143 151 154 153 146 142 145 146 146 150 153 158 164 170 170 169 170 174
216 221 208 214 207 209 213 210 210 217 226 236 240 233 214 154 167 171 171 166 160 156 150 143 139 137 140 141 142 136 131 130 136 137 135 139 142 143 141 149 152 151 150 152
197 211 211 210 201 212 218 214 215 218 222 231 232 225 192 183 181 179 175 172 162 153 147 140 138 136 132 129 131 129 125 127 128 126 125 125 127 126 130 135 129 131 132 127
207 210 216 210 198 220 211 209 220 222 224 232 233 211 193 178 158 164 169 168 157 149 144 139 136 132 127 126 126 124 123 125 123 118 115 114 116 117 117 115 112 112 113 111
213 213 219 213 208 213 194 197 207 213 215 219 219 204 169 147 149 158 158 156 149 143 137 135 133 129 125 122 122 122 121 119 113 106 103 105 108 107 108 106 103 105 106 104
197 219 225 215 219 217 188 166 195 222 212 190 198 189 175 180 200 154 143 143 133 127 126 127 126 124 120 116 118 122 119 114 107 104 103 100 99 100 105 108 106 106 105 102
184 199 218 217 221 213 113 147 185 214 176 138 179 180 184 195 79 114 132 130 127 125 124 124 120 116 116 119 120 116 111 107 107 106 102 98 98 99 101 102 102 105 102 97
194 193 203 214 221 196 117 180 206 56 57 104 156 170 159 126 114 125 130 128 128 127 127 124 118 113 114 118 117 110 105 105 105 104 102 98 95 95 97 98 98 101 106 105
218 240 210 222 195 70 88 46 37 30 52 69 106 132 148 143 134 133 130 130 130 126 123 121 118 114 110 110 112 109 106 111 110 107 102 99 95 90 92 97 101 102 104 107
168 230 207 182 138 115 102 84 78 78 87 96 121 142 151 143 138 135 131 130 129 125 123 122 119 113 107 105 106 109 113 116 114 110 106 104 100 93 83 79 82 85 89 99
166 189 183 182 176 155 121 84 80 93 104 112 118 131 140 140 136 132 129 129 127 123 122 122 118 117 114 112 110 114 118 120 116 114 112 108 100 93 83 69 50 57 54 46
220 225 225 193 162 159 106 82 85 101 112 110 109 115 124 130 129 126 123 123 124 124 123 121 120 118 117 115 112 113 119 124 124 120 119 115 112 108 106 101 83 55 60 59